weather.gov     
National Weather Service

Regional Weather Roundup
NWS Homepage
This page is being discontinued on March 12, 2014.
The same data is available at this site. Please update your bookmarks.
Thank you, and we apologize for the inconvenience.
Please send an email to SR-SRH.Webmaster@noaa.gov with any concerns.


Current Version
Previous Version:    01  02  03  04  05  06  07  08  09  10  11  12  13  14  15  16  17  18  19  20  21  22  23  24  25  26  
[Printable]
415
ASUS45 KBOU 221507
RWRCO

WEATHER ROUNDUP FOR COLORADO
NATIONAL WEATHER SERVICE DENVER/BOULDER CO
900 AM MDT FRI AUG 22 2014

NOTE: "FAIR" INDICATES FEW OR NO CLOUDS BELOW 12000 FEET WITH NO
SIGNIFICANT WEATHER AND/OR OBSTRUCTIONS TO VISIBILITY.

COZ001>005-013-030-031-221600-
...NORTHWEST COLORADO...

CITY           SKY/WX    TMP DP  RH WIND       PRES   REMARKS
CRAIG          PTSUNNY   62  49  62 E12       30.18F
HAYDEN         CLOUDY    61  45  55 E9        30.20F
MEEKER         MOSUNNY   61  48  62 CALM      30.19F
MOUNT WERNER   NOT AVBL
STEAMBOAT SPGS CLOUDY    59  47  64 E9        30.23F
WALDEN         CLOUDY    54  46  76 E8        30.32F
$$

COZ006>008-011-221600-
...WEST CENTRAL VALLEYS...

CITY           SKY/WX    TMP DP  RH WIND       PRES   REMARKS
GRAND JUNCTION MOSUNNY   69  51  52 SE16      30.12F
MONTROSE       PTSUNNY   62  55  77 CALM      30.21F
EAGLE          CLOUDY    55  54  94 CALM      30.29F
RIFLE          CLOUDY    63  51  65 E12       30.17F
DELTA          RAIN      65  56  72 NE5       30.18F
NUCLA          PTSUNNY   63  52  67 E5        30.23F
$$

COZ017>023-064>068-221600-
...SOUTHWEST COLORADO...

CITY           SKY/WX    TMP DP  RH WIND       PRES   REMARKS
DURANGO        CLOUDY    57  53  86 CALM      30.27S
CORTEZ         SUNNY     59  53  80 CALM      30.22S
PAGOSA SPRINGS LGT RAIN  56  44  64 CALM      30.35R
TELLURIDE      CLOUDY    54  46  76 E7        30.37F
WOLF CREEK PAS NOT AVBL
$$

COZ009-010-012-014-032>034-037-058>063-221600-
...CENTRAL COLORADO...

CITY           SKY/WX    TMP DP  RH WIND       PRES   REMARKS
ASPEN          PTSUNNY   54  49  83 S5        30.30F
BUENA VISTA    LGT RAIN  58  44  60 NW9       30.33R
COPPER MTN     CLOUDY    45  37  76 S8        30.56F
BERTHOUD PASS  LGT RAIN  37  36  93 NW6       30.61S
COTTONWOOD PAS LGT RAIN  54  43  66 W9        30.44S
GUNNISON       CLOUDY    55  46  71 NW3       30.35R
KREMMLING      CLOUDY    54  50  87 CALM      30.32F
LEADVILLE      CLOUDY    49  43  80 W5        30.43S
MONARCH PASS   CLOUDY    45  34  65 S8        30.66F
SALIDA         CLOUDY    62  43  50 NW5       30.37S
SUNLIGHT       CLOUDY    46  45  93 CALM      30.48S
WILKERSON PASS NOT AVBL
$$

COZ069>075-221600-
...SAN LUIS VALLEY/SANGRE DE CRISTO MOUNTAINS...

CITY           SKY/WX    TMP DP  RH WIND       PRES   REMARKS
ALAMOSA        CLOUDY    58  43  57 NE5       30.30R
LA VETA PASS   NOT AVBL
SAGUACHE       CLOUDY    61  41  48 NW10      30.32F
$$

COZ035-036-038>040-221600-
...NORTHERN COLORADO FRONT RANGE...

CITY           SKY/WX    TMP DP  RH WIND       PRES   REMARKS
DENVER INTL AP CLOUDY    66  55  67 CALM      30.18S
DMNS CITY PARK   N/A     67  55  66 SW1       30.17F
AURORA         PTSUNNY   64  56  75 SW2       30.20S
FRONT RANGE AP NOT AVBL
ERIE MUNI ARPT CLOUDY    65  61  86 CALM      30.17S
BOULDER MUN AP CLOUDY    63  55  77 CALM      30.18R
CENTENNIAL     CLOUDY    64  52  64 CALM      30.20S
BROOMFIELD     CLOUDY    64  57  77 CALM      30.20S
FORT COLLINS   PTSUNNY   64  57  77 N9        30.18S
LONGMONT       PTSUNNY   68  57  68 CALM      30.18S HAZE
$$

COZ041-046-047-076>085-087-088-221600-
...PIKES PEAK/PALMER DIVIDE AND SOUTHERN FOOTHILLS...

CITY           SKY/WX    TMP DP  RH WIND       PRES   REMARKS
COLO. SPRINGS  CLOUDY    67  52  58 VRB7      30.22S
A. F. ACADEMY  CLOUDY    63  51  63 N7        30.24S
ELLICOTT       CLOUDY    66  53  63 NE16G22   30.18F
FALCON         CLOUDY    63  51  66 N9        30.26S
FORT CARSON    MOSUNNY   68  52  56 N12       30.19F
LIMON          CLOUDY    67  55  65 N15       30.16S
MONUMENT HILL  CLOUDY    59  50  72 CALM      30.26F
TRINIDAD       PTSUNNY   71  52  50 N7        30.17S
$$

COZ042>045-048>051-090-091-221600-
...NORTHEAST COLORADO...

CITY           SKY/WX    TMP DP  RH WIND       PRES   REMARKS
GREELEY ARPT     N/A     63  57  82 E5        30.16F
AKRON          CLOUDY    63  59  87 NW8       30.12F
BURLINGTON     MOSUNNY   73  56  54 N16       30.09R
WRAY             N/A     73  60  64 N12       30.05S
STERLING       TSTM      64  63  94 S3        30.11S
HOLYOKE        NOT AVBL
FORT MORGAN    CLOUDY    64  60  87 N5        30.13F
$$

COZ086-089-092>099-221600-
...SOUTHEAST COLORADO...

CITY           SKY/WX    TMP DP  RH WIND       PRES   REMARKS
PUEBLO         CLOUDY    74  54  49 NE12      30.11F
LA JUNTA       MOSUNNY   74  56  53 N12       30.07R
LAMAR          MOSUNNY   76  61  59 NE9       30.00S
SPRINGFIELD      N/A     83  53  35 W10       30.04S
$$




U.S. Dept. of Commerce
NOAA National Weather Service
1325 East West Highway
Silver Spring, MD 20910
E-mail: w-nws.webmaster@noaa.gov
Page last modified: May 16, 2007
NATIONAL WEATHER SERVICE: for Safety, for Work, for Fun - FOR LIFE